sat.trackr.live / text

‹ back to catalog

STARLINK-31916

NORAD 59795 · 2024-093P

PAYLOAD ACTIVE UNKNOWN

§ Identity

Operator
Country
US
Launch date
2024-05-18
Launch site
AFETR
Launch vehicle
Mass (kg)
RCS (m²)

Purposes: comms

External: N2YO · Heavens-Above · Gunter

§ Orbital elements

Epoch: 2026-09-21T02:50:39.222528Z

Period
94.27 min
Inclination
43.0030°
Eccentricity
0.0001396
Mean motion
15.27574365 rev/d
Perigee alt
482.1 km
Apogee alt
484.0 km
Semi-major
6,861.2 km
B*
2.8859e-5
RAAN
185.2243°
Arg perigee
272.3501°
Mean anomaly
87.7191°
Rev number
13,258

§ Raw data

STARLINK-319161 59795U 24093P   26264.11850952  .00000532  00000+0  28859-4 0  99992 59795  43.0030 185.2243 0001396 272.3501  87.7191 15.27574365132588

JSON: /api/v1/satellites/59795 · /tle

For live sub-satellite position, see the globe view (requires WebGL).

§ Visibility from observer

Set your observer location to see the next 7 days of passes ≥ 10°. The values pass through the URL so the page stays shareable.

No JS? Fill the form by hand. The geolocation button needs JavaScript.